Location: Elstree
(51.6403°N, 0.2969°W)
Time: 18:50:09
(UTC+00:00)

SJ-6B - Pass Details

Date: 03 March 2021
Orbit: 509 x 581 km, 97.6° (Epoch: 17 April)

Event Time Altitude Azimuth Distance (km) Brightness Sun altitude
Exits shadow 19:22:51 17° 148° (SSE) 1,465 4.6 -15.9°
Maximum altitude 19:25:50 60° 72° (ENE) 660 2.9 -16.3°
Drops below altitude 10° 19:29:50 10° 353° (N) 1,872 5.7 -17.0°
Sets 19:31:59 0° 350° (N) 2,762 6.7 -17.3°
